Location: Cuiry
(49.3858°N, 3.7708°E)
Time: 00:08:00
(UTC+00:00)

Cosmos 1741 Rocket - Pass Details

Date: 12 January 2026
Orbit: 758 x 777 km, 74.0° (Epoch: 18 February)

Event Time Altitude Azimuth Distance (km) Brightness Sun altitude
Rises 18:41:16 0° 333° (NNW) 3,242 7.5 -23.9°
Reaches altitude 10° 18:43:41 10° 330° (NNW) 2,308 6.7 -24.2°
Maximum altitude 18:48:49 60° 252° (WSW) 869 4.4 -25.1°
Drops below altitude 10° 18:53:55 10° 173° (S) 2,284 6.4 -25.9°
Sets 18:56:17 0° 170° (S) 3,203 7.2 -26.3°
